Location: Newark
(9.4667°S, 159.8167°E)
Time: 16:50:53
(UTC+00:00)

Explorer 7 - Pass Details

Date: 20 November 2019
Orbit: 485 x 680 km, 50.3° (Epoch: 10 December)

Event Time Altitude Azimuth Distance (km) Brightness Sun altitude
Rises 08:23:46 0° 199° (SSW) 2,981 11.2 -14.6°
Reaches altitude 10° 08:26:26 10° 186° (S) 2,088 10.2 -15.3°
Maximum altitude 08:30:27 26° 130° (SE) 1,336 8.5 -16.2°
Enters shadow 08:31:56 22° 102° (ESE) 1,467 8.5 -16.5°
